Theta_e
288 288 286 285 285 286 288 288 289 283 283 282 281 284 284 283 281 282 280 279 280 281 281 282 283 284 285 285 285 286 287 287 287 287 288 288 289 288
286 284 283 283 283 284 286 286 286 286 281 283 282 283 282 281 280 280 279 278 278 279 280 281 282 282 282 283 283 284 285 285 286 286 286 287 287 287
283 282 281 282 282 282 283 283 283 285 281 280 281 281 280 280 280 279 278 278 278 277 278 280 280 280 280 281 281 282 282 282 283 283 284 285 285 285
280 280 280 281 281 281 282 281 282 283 281 278 279 279 279 278 278 277 276 276 276 276 278 278 279 279 279 279 279 279 279 279 280 280 281 282 283 284
280 280 280 280 280 281 281 281 281 280 281 279 277 278 278 277 275 276 275 275 275 275 276 276 277 277 277 277 277 277 276 276 277 278 279 280 281 282
280 280 280 280 281 281 280 280 279 278 277 276 275 275 275 275 274 273 272 274 273 274 274 274 274 274 275 275 275 274 274 275 277 278 278 279 280 281
279 280 280 281 281 281 279 278 278 277 276 274 273 274 273 272 271 272 271 272 272 273 272 271 271 271 271 272 272 273 275 276 276 277 277 278 279 280
279 280 281 282 281 281 280 279 278 276 274 273 273 271 272 271 272 271 271 269 267 274 270 269 270 269 270 270 272 274 275 275 276 276 277 278 278 278
279 279 279 280 280 278 279 279 278 277 276 274 272 272 271 272 271 271 270 269 268 270 268 266 270 268 270 270 272 273 274 274 275 275 276 276 276 276
278 278 278 277 277 276 276 275 274 274 274 274 274 273 273 273 273 271 269 269 268 269 269 263 269 267 269 269 271 272 273 273 274 274 274 274 275 275
278 278 278 278 278 278 276 274 273 273 274 274 274 273 273 273 271 270 268 266 265 266 268 265 265 266 267 267 268 269 271 271 271 271 272 273 273 273
277 277 278 278 279 278 275 273 271 272 272 271 271 270 269 268 269 268 267 264 264 263 266 262 265 264 262 266 265 267 267 268 270 270 271 271 271 269
276 276 277 278 278 276 274 273 272 272 270 268 268 268 268 268 268 267 267 265 263 263 267 265 263 263 262 262 264 266 265 266 266 266 268 269 269 269
275 275 276 276 275 274 272 272 272 269 268 267 267 267 266 266 267 266 266 265 265 264 265 264 261 261 261 260 260 265 265 265 265 265 264 266 268 268
274 275 276 274 272 271 270 270 267 268 267 266 266 266 266 266 265 264 264 263 262 263 263 262 261 261 261 259 259 260 262 263 264 263 264 263 264 264
275 273 272 270 269 268 267 267 267 267 266 266 265 266 265 264 263 263 262 262 261 261 263 263 261 261 260 261 261 260 261 260 263 263 263 263 263 264
269 269 268 267 267 268 268 266 267 266 265 265 265 264 264 263 263 263 262 261 259 260 261 263 263 262 261 259 257 259 260 261 263 262 261 261 262 263
268 268 268 268 267 267 267 267 266 264 265 265 264 263 262 262 262 262 262 260 259 259 259 261 260 259 259 261 262 258 259 259 262 262 262 259 259 262
268 268 268 268 268 267 266 265 265 266 264 263 263 262 262 262 261 260 260 260 259 259 260 260 259 257 255 255 261 265 261 261 261 259 260 260 258 260
267 267 267 267 266 266 266 265 265 264 264 263 262 262 261 261 260 260 260 258 258 259 258 259 258 258 256 256 257 259 263 260 259 258 259 261 262 265
267 266 266 265 265 265 265 264 263 263 263 262 262 261 261 260 259 259 258 256 256 256 256 257 260 261 259 258 254 256 260 264 264 261 260 259 258 259
267 265 266 265 264 264 264 263 263 262 262 261 261 261 261 260 258 258 257 257 257 258 258 259 260 259 258 256 254 255 257 260 262 263 265 264 260 256
265 265 265 264 264 264 263 262 262 262 261 261 261 261 260 258 258 258 257 257 256 256 256 257 258 259 258 257 255 255 255 256 258 258 260 264 266 266
Wind_Speed
10 10 9 5 6 4 5 4 7 6 4 6 4 6 4 4 4 2 5 7 9 11 14 16 16 18 19 20 20 21 22 22 22 25 25 24 23 23
9 12 9 5 6 4 5 4 3 4 6 4 3 7 5 3 4 4 5 8 6 11 15 16 18 18 18 19 20 20 21 24 26 26 26 24 23 23
12 13 10 8 7 7 6 6 5 5 8 4 5 6 5 2 2 4 4 6 6 11 15 17 17 17 18 19 20 22 24 25 25 25 25 24 24 23
12 15 11 8 11 9 7 8 7 6 6 10 7 4 3 1 3 5 4 5 6 10 16 17 17 18 19 21 22 22 22 22 23 23 24 23 23 24
12 12 11 11 11 9 8 7 7 7 6 6 5 2 2 1 4 4 5 7 6 11 15 16 16 19 21 22 22 21 20 20 21 21 21 23 24 25
12 12 11 11 12 11 9 9 8 8 6 6 5 3 1 1 3 5 6 6 8 8 10 12 15 18 21 21 21 21 20 20 21 21 22 24 25 25
13 13 13 12 14 11 7 8 8 6 5 5 4 2 0 2 4 4 7 8 10 10 6 7 10 10 10 14 17 19 21 23 21 20 20 22 23 24
14 15 14 14 17 18 17 12 8 6 6 3 3 2 0 2 3 5 7 8 7 1 8 12 11 10 9 9 19 24 22 19 18 19 19 21 22 24
13 12 11 8 12 12 14 13 12 10 7 3 3 1 1 3 5 8 9 9 10 10 12 11 8 9 9 9 20 24 20 16 16 17 20 23 25 27
12 11 12 11 9 9 8 7 6 6 4 3 3 2 2 5 7 7 9 10 10 10 8 8 7 10 10 11 19 19 15 14 18 23 26 25 25 27
11 10 10 10 11 11 7 6 5 4 5 5 2 3 6 9 7 6 6 8 9 7 7 9 8 12 10 9 7 11 14 18 23 22 24 26 28 28
9 9 10 8 10 9 6 4 3 3 3 2 3 5 5 6 8 5 5 7 7 8 2 5 8 8 8 3 5 9 8 15 21 23 24 25 25 12
8 6 5 9 11 9 6 3 3 4 2 2 3 4 4 5 4 4 5 6 8 10 10 7 7 9 6 9 8 9 10 9 11 13 17 18 20 20
8 6 6 9 8 7 5 4 5 4 1 3 4 5 5 5 5 5 6 8 9 13 13 11 8 8 10 11 10 8 10 10 10 9 10 14 20 23
6 8 11 9 7 4 3 4 3 0 2 3 4 5 5 6 8 8 8 10 12 13 11 12 10 11 10 11 12 12 13 8 10 7 10 11 11 11
11 6 6 5 4 3 2 2 1 2 3 4 5 5 6 6 7 6 7 7 9 10 10 10 11 11 10 11 11 14 11 10 9 11 11 11 11 11
6 3 3 4 3 3 3 2 2 2 3 4 5 6 7 7 8 6 7 7 9 9 9 7 8 11 11 13 12 12 12 11 10 11 12 13 11 12
2 3 3 3 3 3 3 3 3 4 4 5 6 6 7 7 8 7 7 8 9 9 9 8 8 8 8 11 21 12 11 13 11 11 12 14 13 10
2 2 3 3 3 3 3 4 5 4 4 6 6 7 7 8 8 8 7 8 9 9 9 8 7 7 9 11 8 15 12 11 12 12 10 12 15 13
3 3 3 3 4 4 4 5 6 6 6 6 7 7 8 8 8 8 8 9 9 9 9 8 7 8 10 9 10 11 22 14 11 13 13 12 15 27
4 4 5 5 5 5 5 6 7 7 7 7 8 7 8 8 9 9 9 10 11 9 10 10 8 10 9 9 9 11 10 19 19 13 14 13 14 15
5 6 5 5 5 5 5 6 7 7 7 7 8 8 8 8 9 9 9 10 10 10 10 9 9 8 9 10 12 15 11 10 14 23 27 25 13 14
7 6 5 6 6 6 6 6 7 8 8 8 8 8 8 8 8 9 9 9 9 9 10 10 9 8 10 11 13 12 18 17 12 12 12 24 26 28
Wind_Direction
116 109 109 101 103 91 116 146 148 154 151 169 150 172 152 159 82 357 337 355 327 332 335 334 331 325 325 325 323 320 317 312 311 312 310 307 304 307
109 107 103 105 91 92 100 100 51 111 120 132 123 154 155 153 111 321 324 298 321 324 334 332 324 324 328 326 323 320 317 315 313 307 307 303 302 304
105 105 105 106 106 100 93 86 80 91 122 116 126 144 154 154 262 311 315 321 321 331 325 321 324 325 326 320 319 317 313 310 307 304 301 299 299 303
105 110 109 112 99 96 91 90 87 74 121 135 138 143 161 135 318 313 320 314 321 316 317 321 318 320 317 317 316 313 309 307 306 303 298 300 298 298
119 112 110 106 101 101 96 93 86 78 76 121 125 124 108 15 323 321 324 312 309 317 315 309 309 311 314 312 311 308 308 307 306 300 297 295 291 291
104 100 100 107 112 108 103 102 97 94 98 106 104 119 163 28 319 315 315 321 317 311 300 285 298 297 300 301 301 300 307 305 299 297 296 295 294 297
98 96 94 96 97 102 113 102 108 115 116 119 121 127 126 323 323 323 315 322 313 297 285 293 301 297 288 291 290 293 300 305 303 301 296 294 295 295
105 101 105 106 105 102 98 101 104 118 121 122 118 122 135 322 326 325 318 326 322 279 306 298 294 282 278 282 289 295 300 297 300 301 298 298 303 309
112 118 111 105 109 111 108 103 95 92 76 98 103 76 327 349 327 320 312 297 286 301 312 293 299 279 290 282 283 291 293 292 301 303 307 311 308 302
116 118 119 126 133 131 119 121 119 86 86 99 102 112 330 320 310 303 298 298 289 284 287 280 302 294 299 283 277 280 287 285 304 308 307 306 304 302
109 119 129 132 139 134 133 135 117 100 89 84 74 313 303 305 306 301 291 301 304 302 312 282 290 303 287 278 260 281 281 299 302 302 301 301 304 304
116 118 123 130 130 142 141 129 123 132 165 213 280 307 315 306 306 278 280 280 292 305 117 279 303 328 313 239 265 291 291 289 297 301 303 305 305 301
131 121 123 135 138 133 118 143 172 155 174 272 285 291 295 290 284 275 264 261 264 258 271 300 305 307 273 301 304 304 302 300 304 305 299 296 300 298
136 140 149 140 127 138 168 168 135 155 235 292 298 300 300 299 300 288 278 267 264 267 283 288 274 285 289 295 288 314 310 305 292 303 308 295 302 302
132 149 142 146 150 149 165 160 152 266 293 292 297 295 295 295 296 286 276 274 275 273 271 267 261 275 277 275 286 296 304 306 298 281 306 302 298 300
133 130 156 159 181 162 199 169 248 263 282 283 282 286 291 290 282 278 276 279 279 274 264 253 252 259 272 272 278 286 286 289 299 295 298 294 290 284
133 139 173 198 209 220 224 231 262 260 262 256 263 273 275 276 275 274 270 270 264 282 287 276 263 264 269 276 276 267 279 279 283 299 295 289 285 289
159 185 193 215 241 269 294 302 285 260 258 264 268 266 269 275 277 273 265 261 270 276 282 288 293 294 283 250 232 262 268 274 278 292 294 291 290 285
226 193 220 226 256 267 272 274 277 275 286 268 270 271 273 272 271 271 271 268 270 275 277 285 284 280 285 281 282 248 273 283 295 291 286 285 288 290
222 223 238 241 249 258 265 271 279 280 273 271 269 271 270 272 277 276 275 275 277 281 285 279 266 260 260 280 297 281 279 282 285 286 288 286 280 287
217 226 227 235 243 252 259 263 265 268 269 274 273 270 270 268 270 269 269 266 269 273 275 276 272 277 278 287 268 267 272 279 283 285 293 294 299 297
243 237 236 238 249 254 263 267 269 268 267 261 261 263 265 261 263 266 266 272 270 270 273 281 283 269 259 255 267 280 283 286 284 287 284 283 296 293
241 242 241 243 249 254 255 261 265 268 263 259 260 260 260 261 261 263 267 268 267 267 270 276 277 268 260 259 265 276 280 286 289 292 279 283 289 293